| time (UTC) | temp F | wind direction | speed knots | gust knots | rain 1hr in | rain 24hr in | rain mn in | humidity % | barometer mb |
| 20260906121506 | 67 | 34 | 0.0 | 0.9 | 0.00 | 0.00 | 0.00 | 92 | 1019.0 |
| 20260906121007 | 67 | 34 | 0.0 | 0.9 | 0.00 | 0.00 | 0.00 | 92 | 1018.9 |
| 20260906120011 | 67 | 34 | 0.0 | 0.0 | 0.00 | 0.00 | 0.00 | 92 | 1018.8 |
| 20260906115506 | 67 | 34 | 0.0 | 0.0 | 0.00 | 0.00 | 0.00 | 92 | 1018.6 |
| 20260906115007 | 67 | 34 | 0.0 | 0.0 | 0.00 | 0.00 | 0.00 | 92 | 1018.6 |
| 20260906114006 | 67 | 34 | 0.0 | 0.9 | 0.00 | 0.00 | 0.00 | 92 | 1018.4 |
| 20260906113506 | 67 | 34 | 0.0 | 0.9 | 0.00 | 0.00 | 0.00 | 92 | 1018.4 |
| 20260906113008 | 67 | 34 | 0.0 | 0.9 | 0.00 | 0.00 | 0.00 | 92 | 1018.4 |
| 20260906111006 | 68 | 34 | 0.0 | 0.9 | 0.00 | 0.00 | 0.00 | 91 | 1018.2 |
| 20260906110019 | 68 | 34 | 0.0 | 0.9 | 0.00 | 0.00 | 0.00 | 91 | 1018.2 |
| 20260906105505 | 68 | 34 | 0.0 | 3.5 | 0.00 | 0.00 | 0.00 | 91 | 1018.2 |
| 20260906104505 | 68 | 34 | 0.0 | 2.6 | 0.00 | 0.00 | 0.00 | 91 | 1018.0 |
| 20260906104006 | 68 | 34 | 0.0 | 0.9 | 0.00 | 0.00 | 0.00 | 91 | 1017.9 |
| 20260906103505 | 68 | 34 | 0.0 | 0.9 | 0.00 | 0.00 | 0.00 | 91 | 1017.8 |
| 20260906103006 | 68 | 34 | 0.0 | 1.7 | 0.00 | 0.00 | 0.00 | 91 | 1017.7 |
| 20260906102505 | 68 | 34 | 0.0 | 2.6 | 0.00 | 0.00 | 0.00 | 91 | 1017.6 |
| 20260906102005 | 68 | 34 | 0.0 | 2.6 | 0.00 | 0.00 | 0.00 | 91 | 1017.7 |
| 20260906101505 | 68 | 34 | 0.0 | 1.7 | 0.00 | 0.00 | 0.00 | 90 | 1017.8 |
| 20260906101005 | 68 | 34 | 0.0 | 1.7 | 0.00 | 0.00 | 0.00 | 90 | 1017.7 |
| 20260906100505 | 69 | 34 | 0.0 | 0.9 | 0.00 | 0.00 | 0.00 | 90 | 1017.7 |
| 20260906100013 | 69 | 34 | 0.0 | 1.7 | 0.00 | 0.00 | 0.00 | 90 | 1017.7 |
| 20260906095507 | 69 | 34 | 0.0 | 1.7 | 0.00 | 0.00 | 0.00 | 90 | 1017.7 |
| 20260906095006 | 69 | 34 | 0.0 | 1.7 | 0.00 | 0.00 | 0.00 | 90 | 1017.7 |
| 20260906093505 | 69 | 34 | 0.0 | 2.6 | 0.00 | 0.00 | 0.00 | 90 | 1017.5 |
| 20260906092506 | 69 | 34 | 0.0 | 0.9 | 0.00 | 0.00 | 0.00 | 89 | 1017.6 |
| 20260906092007 | 69 | 34 | 0.0 | 0.9 | 0.00 | 0.00 | 0.00 | 89 | 1017.5 |
| 20260906091506 | 69 | 34 | 0.0 | 0.9 | 0.00 | 0.00 | 0.00 | 89 | 1017.5 |
| 20260906091007 | 69 | 34 | 0.0 | 1.7 | 0.00 | 0.00 | 0.00 | 89 | 1017.5 |
| 20260906090506 | 69 | 34 | 0.0 | 1.7 | 0.00 | 0.00 | 0.00 | 89 | 1017.4 |
| 20260906090015 | 69 | 34 | 0.0 | 0.9 | 0.00 | 0.00 | 0.00 | 89 | 1017.4 |
| 20260906085505 | 69 | 34 | 0.0 | 0.0 | 0.00 | 0.00 | 0.00 | 88 | 1017.3 |
| 20260906085006 | 69 | 34 | 0.0 | 0.0 | 0.00 | 0.00 | 0.00 | 88 | 1017.4 |
| 20260906084505 | 69 | 34 | 0.0 | 0.0 | 0.00 | 0.00 | 0.00 | 88 | 1017.3 |
| 20260906084005 | 69 | 34 | 0.0 | 0.0 | 0.00 | 0.00 | 0.00 | 88 | 1017.4 |
| 20260906083505 | 70 | 34 | 0.0 | 0.0 | 0.00 | 0.00 | 0.00 | 88 | 1017.4 |
| 20260906083009 | 70 | 34 | 0.0 | 0.0 | 0.00 | 0.00 | 0.00 | 88 | 1017.4 |
| 20260906082506 | 70 | 34 | 0.0 | 0.0 | 0.00 | 0.00 | 0.00 | 88 | 1017.4 |
| 20260906082006 | 70 | 34 | 0.0 | 0.0 | 0.00 | 0.00 | 0.00 | 88 | 1017.4 |
| 20260906081506 | 70 | 34 | 0.0 | 0.0 | 0.00 | 0.00 | 0.00 | 88 | 1017.4 |
| 20260906080505 | 70 | 34 | 0.0 | 0.0 | 0.00 | 0.00 | 0.00 | 88 | 1017.6 |
| 20260906075505 | 70 | 34 | 0.0 | 0.0 | 0.00 | 0.00 | 0.00 | 88 | 1017.4 |
| 20260906075006 | 70 | 34 | 0.0 | 0.0 | 0.00 | 0.00 | 0.00 | 88 | 1017.6 |
| 20260906074505 | 70 | 34 | 0.0 | 0.0 | 0.00 | 0.00 | 0.00 | 88 | 1017.4 |
| 20260906074006 | 70 | 34 | 0.0 | 0.9 | 0.00 | 0.00 | 0.00 | 88 | 1017.5 |
| 20260906073505 | 70 | 34 | 0.0 | 0.9 | 0.00 | 0.00 | 0.00 | 88 | 1017.4 |
| 20260906073012 | 70 | 34 | 0.0 | 0.0 | 0.00 | 0.00 | 0.00 | 88 | 1017.4 |
| 20260906072505 | 71 | 34 | 0.0 | 0.0 | 0.00 | 0.00 | 0.00 | 88 | 1017.5 |
| 20260906072014 | 71 | 34 | 0.0 | 0.0 | 0.00 | 0.00 | 0.00 | 88 | 1017.6 |
| 20260906071505 | 71 | 34 | 0.0 | 0.0 | 0.00 | 0.00 | 0.00 | 88 | 1017.6 |
| 20260906071010 | 71 | 34 | 0.0 | 0.0 | 0.00 | 0.00 | 0.00 | 87 | 1017.7 |
| 20260906070505 | 71 | 34 | 0.0 | 0.0 | 0.00 | 0.00 | 0.00 | 87 | 1017.7 |
| 20260906070011 | 71 | 34 | 0.0 | 0.0 | 0.00 | 0.00 | 0.00 | 87 | 1017.6 |
| 20260906065504 | 71 | 34 | 0.0 | 0.0 | 0.00 | 0.00 | 0.00 | 87 | 1017.6 |
| 20260906065006 | 71 | 23 | 0.0 | 0.9 | 0.00 | 0.00 | 0.00 | 87 | 1017.6 |
| 20260906064505 | 71 | 23 | 0.0 | 0.9 | 0.00 | 0.00 | 0.00 | 87 | 1017.6 |
| 20260906064006 | 71 | 23 | 0.0 | 0.9 | 0.00 | 0.00 | 0.00 | 87 | 1017.6 |
| 20260906063507 | 71 | 23 | 0.0 | 0.0 | 0.00 | 0.00 | 0.00 | 87 | 1017.6 |
| 20260906063006 | 71 | 23 | 0.0 | 0.0 | 0.00 | 0.00 | 0.00 | 87 | 1017.5 |
| 20260906062505 | 71 | 23 | 0.0 | 0.9 | 0.00 | 0.00 | 0.00 | 87 | 1017.5 |
| 20260906061507 | 71 | 23 | 0.0 | 1.7 | 0.00 | 0.00 | 0.00 | 87 | 1017.5 |
| 20260906061006 | 71 | 64 | 0.0 | 1.7 | 0.00 | 0.00 | 0.00 | 87 | 1017.5 |
| 20260906060505 | 71 | 57 | 0.0 | 0.9 | 0.00 | 0.00 | 0.00 | 86 | 1017.5 |
| 20260906060011 | 71 | 51 | 0.0 | 0.9 | 0.00 | 0.00 | 0.00 | 86 | 1017.6 |
| 20260906055508 | 71 | 59 | 0.0 | 0.9 | 0.00 | 0.00 | 0.00 | 86 | 1017.5 |
| 20260906055008 | 72 | 59 | 0.0 | 1.7 | 0.00 | 0.00 | 0.00 | 86 | 1017.5 |
| 20260906054009 | 72 | 44 | 0.0 | 0.9 | 0.00 | 0.00 | 0.00 | 85 | 1017.6 |
| 20260906053509 | 72 | 44 | 0.0 | 0.9 | 0.00 | 0.00 | 0.00 | 85 | 1017.5 |
| 20260906052508 | 72 | 60 | 0.0 | 3.5 | 0.00 | 0.00 | 0.00 | 85 | 1017.5 |
| 20260906052008 | 72 | 42 | 0.0 | 1.7 | 0.00 | 0.00 | 0.00 | 85 | 1017.5 |
| 20260906051508 | 72 | 32 | 0.0 | 1.7 | 0.00 | 0.00 | 0.00 | 85 | 1017.4 |
| 20260906051008 | 72 | 30 | 0.0 | 1.7 | 0.00 | 0.00 | 0.00 | 85 | 1017.5 |
| 20260906050508 | 72 | 65 | 0.0 | 0.0 | 0.00 | 0.00 | 0.00 | 85 | 1017.4 |
| 20260906050018 | 72 | 74 | 0.0 | 0.9 | 0.00 | 0.00 | 0.00 | 85 | 1017.4 |
| 20260906045506 | 72 | 74 | 0.0 | 0.9 | 0.00 | 0.00 | 0.00 | 85 | 1017.3 |
| 20260906045007 | 72 | 74 | 0.0 | 2.6 | 0.00 | 0.00 | 0.00 | 85 | 1017.3 |
| 20260906044507 | 72 | 78 | 0.0 | 2.6 | 0.00 | 0.00 | 0.00 | 85 | 1017.3 |
| 20260906044008 | 72 | 25 | 0.0 | 1.7 | 0.00 | 0.00 | 0.00 | 85 | 1017.3 |
| 20260906043009 | 72 | 48 | 0.0 | 2.6 | 0.00 | 0.00 | 0.00 | 85 | 1016.9 |
| 20260906042507 | 72 | 43 | 0.0 | 2.6 | 0.00 | 0.00 | 0.00 | 85 | 1016.8 |
| 20260906042009 | 72 | 56 | 0.0 | 1.7 | 0.00 | 0.00 | 0.00 | 85 | 1016.7 |
| 20260906041508 | 72 | 48 | 0.0 | 1.7 | 0.00 | 0.00 | 0.00 | 85 | 1016.6 |
| 20260906041013 | 72 | 61 | 0.0 | 1.7 | 0.00 | 0.00 | 0.00 | 85 | 1016.6 |
| 20260906040012 | 72 | 64 | 0.0 | 1.7 | 0.00 | 0.00 | 0.00 | 85 | 1016.5 |
| 20260906035507 | 72 | 49 | 0.0 | 2.6 | 0.00 | 0.00 | 0.00 | 85 | 1016.5 |
| 20260906035008 | 72 | 61 | 0.0 | 3.5 | 0.00 | 0.00 | 0.00 | 85 | 1016.4 |
| 20260906034507 | 72 | 72 | 0.0 | 3.5 | 0.00 | 0.00 | 0.00 | 85 | 1016.5 |
| 20260906034007 | 72 | 55 | 0.0 | 3.5 | 0.00 | 0.00 | 0.00 | 85 | 1016.4 |
| 20260906033008 | 72 | 56 | 0.0 | 0.9 | 0.00 | 0.00 | 0.00 | 85 | 1016.4 |
| 20260906032510 | 72 | 69 | 0.0 | 2.6 | 0.00 | 0.00 | 0.00 | 84 | 1016.4 |
| 20260906031507 | 72 | 61 | 0.0 | 2.6 | 0.00 | 0.00 | 0.00 | 84 | 1016.5 |
| 20260906031009 | 72 | 37 | 0.0 | 2.6 | 0.00 | 0.00 | 0.00 | 84 | 1016.6 |
| 20260906030508 | 72 | 57 | 0.0 | 2.6 | 0.00 | 0.00 | 0.00 | 84 | 1016.5 |
| 20260906030011 | 72 | 58 | 0.0 | 1.7 | 0.00 | 0.00 | 0.00 | 84 | 1016.5 |
| 20260906025508 | 72 | 55 | 0.0 | 1.7 | 0.00 | 0.00 | 0.00 | 83 | 1016.5 |
| 20260906025009 | 72 | 69 | 0.0 | 3.5 | 0.00 | 0.00 | 0.00 | 83 | 1016.6 |
| 20260906024509 | 72 | 68 | 0.0 | 3.5 | 0.00 | 0.00 | 0.00 | 83 | 1016.6 |
| 20260906024008 | 72 | 346 | 0.0 | 2.6 | 0.00 | 0.00 | 0.00 | 83 | 1016.5 |
| 20260906023508 | 72 | 69 | 0.0 | 3.5 | 0.00 | 0.00 | 0.00 | 83 | 1016.6 |
| 20260906022508 | 72 | 26 | 0.0 | 2.6 | 0.00 | 0.00 | 0.00 | 83 | 1016.6 |
| 20260906022009 | 72 | 28 | 0.0 | 2.6 | 0.00 | 0.00 | 0.00 | 83 | 1016.5 |
| 20260906021008 | 72 | 63 | 0.0 | 3.5 | 0.00 | 0.00 | 0.00 | 84 | 1016.3 |
| 20260906015508 | 72 | 5 | 0.0 | 2.6 | 0.00 | 0.00 | 0.00 | 83 | 1016.5 |
| 20260906015008 | 72 | 28 | 0.0 | 4.3 | 0.00 | 0.00 | 0.00 | 83 | 1016.6 |
| 20260906014510 | 72 | 58 | 0.9 | 4.3 | 0.00 | 0.00 | 0.00 | 83 | 1016.6 |
| 20260906014009 | 72 | 70 | 0.9 | 3.5 | 0.00 | 0.00 | 0.00 | 83 | 1016.6 |
| 20260906013508 | 72 | 42 | 0.0 | 3.5 | 0.00 | 0.00 | 0.00 | 83 | 1016.5 |
| 20260906013008 | 72 | 44 | 0.9 | 3.5 | 0.00 | 0.00 | 0.00 | 83 | 1016.6 |
| 20260906012008 | 73 | 48 | 0.0 | 2.6 | 0.00 | 0.00 | 0.00 | 84 | 1016.6 |
| 20260906011508 | 72 | 20 | 0.0 | 4.3 | 0.00 | 0.00 | 0.00 | 84 | 1016.6 |
| 20260906011008 | 73 | 16 | 0.9 | 4.3 | 0.00 | 0.00 | 0.00 | 84 | 1016.6 |
| 20260906010011 | 72 | 65 | 0.0 | 2.6 | 0.00 | 0.00 | 0.00 | 83 | 1016.5 |
| 20260906005508 | 72 | 36 | 0.9 | 7.8 | 0.00 | 0.00 | 0.00 | 83 | 1016.3 |
| 20260906005008 | 72 | 19 | 0.9 | 7.8 | 0.00 | 0.00 | 0.00 | 83 | 1016.3 |
| 20260906004511 | 72 | 69 | 0.9 | 4.3 | 0.00 | 0.00 | 0.00 | 83 | 1016.3 |
| 20260906004009 | 72 | 25 | 0.9 | 4.3 | 0.00 | 0.00 | 0.00 | 83 | 1016.1 |
| 20260906003508 | 72 | 44 | 0.9 | 4.3 | 0.00 | 0.00 | 0.00 | 83 | 1016.0 |
| 20260906003009 | 72 | 250 | 1.7 | 5.2 | 0.00 | 0.00 | 0.00 | 82 | 1016.0 |
| 20260906002508 | 72 | 25 | 1.7 | 5.2 | 0.00 | 0.00 | 0.00 | 82 | 1015.9 |
| 20260906002009 | 72 | 70 | 0.9 | 5.2 | 0.00 | 0.00 | 0.00 | 83 | 1015.9 |
| 20260906001508 | 72 | 43 | 0.9 | 5.2 | 0.00 | 0.00 | 0.00 | 83 | 1015.8 |
| 20260906001008 | 72 | 64 | 0.9 | 5.2 | 0.00 | 0.00 | 0.00 | 83 | 1015.8 |
| 20260906000507 | 72 | 66 | 1.7 | 4.3 | 0.00 | 0.00 | 0.00 | 83 | 1015.8 |
| 20260905235507 | 73 | 42 | 1.7 | 5.2 | 0.00 | 0.00 | 0.00 | 83 | 1015.8 |
| 20260905235008 | 73 | 65 | 1.7 | 5.2 | 0.00 | 0.00 | 0.00 | 82 | 1015.9 |
| 20260905234509 | 74 | 53 | 1.7 | 7.8 | 0.00 | 0.00 | 0.00 | 82 | 1015.9 |
| 20260905234008 | 74 | 33 | 1.7 | 7.8 | 0.00 | 0.00 | 0.00 | 81 | 1016.0 |
| 20260905233507 | 74 | 70 | 0.9 | 4.3 | 0.00 | 0.00 | 0.00 | 81 | 1015.8 |
| 20260905233008 | 75 | 62 | 1.7 | 5.2 | 0.00 | 0.00 | 0.00 | 80 | 1015.8 |
| 20260905232506 | 75 | 51 | 1.7 | 7.0 | 0.00 | 0.00 | 0.00 | 79 | 1015.7 |
| 20260905232008 | 76 | 16 | 0.9 | 7.0 | 0.00 | 0.00 | 0.00 | 79 | 1015.7 |
| 20260905231507 | 76 | 10 | 0.9 | 5.2 | 0.00 | 0.00 | 0.00 | 78 | 1015.5 |
| 20260905230506 | 77 | 317 | 0.9 | 5.2 | 0.00 | 0.00 | 0.00 | 77 | 1015.4 |
| 20260905225507 | 78 | 41 | 0.9 | 4.3 | 0.00 | 0.00 | 0.00 | 76 | 1015.2 |
| 20260905225007 | 78 | 42 | 0.9 | 4.3 | 0.00 | 0.00 | 0.00 | 75 | 1015.2 |
| 20260905224007 | 80 | 35 | 0.9 | 3.5 | 0.00 | 0.00 | 0.00 | 73 | 1015.2 |
| 20260905223507 | 80 | 53 | 0.9 | 7.8 | 0.00 | 0.00 | 0.00 | 72 | 1015.1 |
| 20260905223008 | 81 | 11 | 0.9 | 7.8 | 0.00 | 0.00 | 0.00 | 71 | 1015.1 |
| 20260905222507 | 81 | 67 | 0.9 | 3.5 | 0.00 | 0.00 | 0.00 | 72 | 1015.0 |
| 20260905222010 | 81 | 57 | 0.9 | 4.3 | 0.00 | 0.00 | 0.00 | 72 | 1014.9 |
| 20260905221007 | 81 | 13 | 0.9 | 4.3 | 0.00 | 0.00 | 0.00 | 72 | 1015.0 |
| 20260905220023 | 81 | 24 | 0.9 | 3.5 | 0.00 | 0.00 | 0.00 | 72 | 1015.2 |
| 20260905215507 | 81 | 69 | 0.9 | 3.5 | 0.00 | 0.00 | 0.00 | 70 | 1015.0 |
| 20260905215007 | 82 | 55 | 0.9 | 4.3 | 0.00 | 0.00 | 0.00 | 70 | 1015.0 |
| 20260905214507 | 82 | 61 | 0.9 | 4.3 | 0.00 | 0.00 | 0.00 | 70 | 1014.9 |
| 20260905214009 | 82 | 273 | 0.9 | 3.5 | 0.00 | 0.00 | 0.00 | 70 | 1014.9 |
| 20260905213507 | 82 | 53 | 0.0 | 3.5 | 0.00 | 0.00 | 0.00 | 70 | 1014.9 |
| 20260905213008 | 81 | 288 | 0.0 | 3.5 | 0.00 | 0.00 | 0.00 | 72 | 1014.9 |
| 20260905212009 | 81 | 42 | 0.9 | 3.5 | 0.00 | 0.00 | 0.00 | 72 | 1014.8 |
| 20260905211507 | 81 | 59 | 0.9 | 4.3 | 0.00 | 0.00 | 0.00 | 73 | 1014.9 |
| 20260905211007 | 81 | 24 | 0.9 | 4.3 | 0.00 | 0.00 | 0.00 | 73 | 1014.8 |
| 20260905210507 | 81 | 59 | 0.9 | 3.5 | 0.00 | 0.00 | 0.00 | 72 | 1014.9 |
| 20260905210010 | 81 | 68 | 0.9 | 2.6 | 0.00 | 0.00 | 0.00 | 74 | 1014.9 |
| 20260905205008 | 80 | 49 | 0.0 | 2.6 | 0.00 | 0.00 | 0.00 | 76 | 1015.1 |
| 20260905204506 | 80 | 49 | 0.9 | 4.3 | 0.00 | 0.00 | 0.00 | 76 | 1015.1 |
| 20260905204007 | 79 | 46 | 0.9 | 4.3 | 0.00 | 0.00 | 0.00 | 77 | 1015.3 |
| 20260905203507 | 78 | 295 | 0.0 | 3.5 | 0.00 | 0.00 | 0.00 | 78 | 1015.0 |
| 20260905202507 | 78 | 13 | 0.9 | 3.5 | 0.00 | 0.00 | 0.00 | 79 | 1015.2 |
| 20260905201507 | 78 | 38 | 0.9 | 5.2 | 0.00 | 0.00 | 0.00 | 79 | 1015.2 |
| 20260905195008 | 78 | 34 | 0.9 | 4.3 | 0.00 | 0.00 | 0.00 | 79 | 1015.3 |
| 20260905194507 | 78 | 65 | 1.7 | 7.0 | 0.00 | 0.00 | 0.00 | 79 | 1015.3 |
| 20260905194008 | 78 | 27 | 0.9 | 7.0 | 0.00 | 0.00 | 0.00 | 79 | 1015.3 |
| 20260905193506 | 78 | 10 | 0.9 | 4.3 | 0.00 | 0.00 | 0.00 | 79 | 1015.3 |
| 20260905193008 | 78 | 53 | 0.9 | 4.3 | 0.00 | 0.00 | 0.00 | 79 | 1015.3 |
| 20260905192506 | 78 | 32 | 0.9 | 5.2 | 0.00 | 0.00 | 0.00 | 79 | 1015.5 |
| 20260905192008 | 78 | 37 | 0.9 | 5.2 | 0.00 | 0.00 | 0.00 | 79 | 1015.4 |
| 20260905191507 | 78 | 37 | 0.9 | 3.5 | 0.00 | 0.00 | 0.00 | 79 | 1015.5 |
| 20260905191009 | 78 | 37 | 0.9 | 5.2 | 0.00 | 0.00 | 0.00 | 79 | 1015.4 |
| 20260905190506 | 78 | 355 | 1.7 | 5.2 | 0.00 | 0.00 | 0.00 | 79 | 1015.5 |
| 20260905190012 | 78 | 23 | 0.9 | 4.3 | 0.00 | 0.00 | 0.00 | 79 | 1015.6 |
| 20260905185007 | 78 | 12 | 0.9 | 5.2 | 0.00 | 0.00 | 0.00 | 79 | 1015.5 |
| 20260905184008 | 79 | 32 | 0.9 | 5.2 | 0.00 | 0.00 | 0.00 | 78 | 1015.6 |
| 20260905183506 | 79 | 22 | 0.9 | 4.3 | 0.00 | 0.00 | 0.00 | 79 | 1015.5 |
| 20260905183007 | 79 | 50 | 0.9 | 4.3 | 0.00 | 0.00 | 0.00 | 78 | 1015.6 |
| 20260905182506 | 79 | 52 | 0.9 | 4.3 | 0.00 | 0.00 | 0.00 | 78 | 1015.6 |
| 20260905182008 | 79 | 67 | 1.7 | 5.2 | 0.00 | 0.00 | 0.00 | 78 | 1015.6 |
| 20260905181507 | 79 | 51 | 1.7 | 5.2 | 0.00 | 0.00 | 0.00 | 77 | 1015.6 |
| 20260905181007 | 79 | 278 | 0.9 | 4.3 | 0.00 | 0.00 | 0.00 | 78 | 1015.5 |
| 20260905180507 | 79 | 45 | 0.9 | 3.5 | 0.00 | 0.00 | 0.00 | 78 | 1015.5 |
| 20260905180019 | 79 | 56 | 1.7 | 4.3 | 0.00 | 0.00 | 0.00 | 77 | 1015.5 |
| 20260905175508 | 80 | 26 | 1.7 | 4.3 | 0.00 | 0.00 | 0.00 | 77 | 1015.5 |
| 20260905174007 | 80 | 35 | 0.9 | 7.0 | 0.00 | 0.00 | 0.00 | 77 | 1015.3 |
| 20260905173506 | 80 | 19 | 1.7 | 7.0 | 0.00 | 0.00 | 0.00 | 77 | 1015.4 |
| 20260905172507 | 80 | 24 | 0.9 | 3.5 | 0.00 | 0.00 | 0.00 | 77 | 1015.4 |
| 20260905171507 | 80 | 55 | 0.9 | 3.5 | 0.00 | 0.00 | 0.00 | 78 | 1015.3 |
| 20260905171007 | 80 | 37 | 0.9 | 5.2 | 0.00 | 0.00 | 0.00 | 78 | 1015.3 |
| 20260905170009 | 79 | 31 | 0.9 | 5.2 | 0.00 | 0.00 | 0.00 | 78 | 1015.6 |
| 20260905165506 | 79 | 275 | 0.9 | 5.2 | 0.00 | 0.00 | 0.00 | 78 | 1015.6 |
| 20260905165006 | 79 | 299 | 1.7 | 5.2 | 0.00 | 0.00 | 0.00 | 79 | 1015.6 |
| 20260905164506 | 79 | 13 | 1.7 | 5.2 | 0.00 | 0.00 | 0.00 | 78 | 1015.7 |
| 20260905164007 | 80 | 19 | 1.7 | 7.8 | 0.00 | 0.00 | 0.00 | 78 | 1015.7 |
| 20260905163506 | 80 | 57 | 0.9 | 7.8 | 0.00 | 0.00 | 0.00 | 78 | 1015.7 |
| 20260905162507 | 80 | 355 | 0.9 | 3.5 | 0.00 | 0.00 | 0.00 | 78 | 1015.6 |
| 20260905162008 | 80 | 71 | 0.9 | 3.5 | 0.00 | 0.00 | 0.00 | 79 | 1015.5 |
| 20260905161506 | 80 | 55 | 0.9 | 3.5 | 0.00 | 0.00 | 0.00 | 78 | 1015.5 |
| 20260905161008 | 79 | 65 | 0.9 | 5.2 | 0.00 | 0.00 | 0.00 | 78 | 1015.5 |
| 20260905160509 | 79 | 80 | 0.9 | 5.2 | 0.00 | 0.00 | 0.00 | 79 | 1015.5 |
| 20260905155507 | 79 | 49 | 0.0 | 1.7 | 0.00 | 0.00 | 0.00 | 80 | 1015.5 |
| 20260905155007 | 79 | 62 | 0.0 | 1.7 | 0.00 | 0.00 | 0.00 | 81 | 1015.5 |
| 20260905154007 | 78 | 53 | 0.9 | 3.5 | 0.00 | 0.00 | 0.00 | 81 | 1015.3 |
| 20260905153507 | 78 | 74 | 0.9 | 3.5 | 0.00 | 0.00 | 0.00 | 80 | 1015.3 |
| 20260905152506 | 78 | 46 | 0.9 | 3.5 | 0.00 | 0.00 | 0.00 | 81 | 1015.2 |
| 20260905152007 | 77 | 56 | 0.0 | 2.6 | 0.00 | 0.00 | 0.00 | 82 | 1015.2 |
| 20260905151506 | 77 | 61 | 0.9 | 3.5 | 0.00 | 0.00 | 0.00 | 82 | 1015.2 |
| 20260905151007 | 77 | 63 | 0.9 | 4.3 | 0.00 | 0.00 | 0.00 | 83 | 1015.1 |
| 20260905150509 | 77 | 67 | 0.9 | 4.3 | 0.00 | 0.00 | 0.00 | 82 | 1015.0 |
| 20260905150011 | 77 | 60 | 0.0 | 2.6 | 0.00 | 0.00 | 0.00 | 82 | 1015.0 |
| 20260905145507 | 77 | 18 | 0.9 | 2.6 | 0.00 | 0.00 | 0.00 | 83 | 1015.0 |
| 20260905145007 | 77 | 56 | 0.9 | 3.5 | 0.00 | 0.00 | 0.00 | 83 | 1014.9 |
| 20260905144507 | 77 | 42 | 0.9 | 3.5 | 0.00 | 0.00 | 0.00 | 83 | 1014.9 |
| 20260905144007 | 77 | 57 | 0.0 | 2.6 | 0.00 | 0.00 | 0.00 | 83 | 1014.9 |
| 20260905143506 | 77 | 42 | 0.9 | 5.2 | 0.00 | 0.00 | 0.00 | 83 | 1014.9 |
| 20260905143008 | 77 | 5 | 0.9 | 5.2 | 0.00 | 0.00 | 0.00 | 84 | 1015.0 |
| 20260905142507 | 77 | 34 | 0.9 | 5.2 | 0.00 | 0.00 | 0.00 | 84 | 1014.9 |
| 20260905142007 | 76 | 44 | 0.9 | 5.2 | 0.00 | 0.00 | 0.00 | 84 | 1014.9 |
| 20260905141007 | 76 | 43 | 0.9 | 4.3 | 0.00 | 0.00 | 0.00 | 86 | 1014.8 |
| 20260905135507 | 75 | 49 | 0.9 | 4.3 | 0.00 | 0.00 | 0.00 | 88 | 1014.5 |
| 20260905135008 | 74 | 36 | 0.9 | 4.3 | 0.00 | 0.00 | 0.00 | 89 | 1014.5 |
| 20260905134507 | 74 | 34 | 0.9 | 4.3 | 0.00 | 0.00 | 0.00 | 89 | 1014.7 |
| 20260905134010 | 74 | 26 | 0.0 | 2.6 | 0.00 | 0.00 | 0.00 | 90 | 1014.7 |
| 20260905133507 | 74 | 21 | 0.9 | 7.8 | 0.00 | 0.00 | 0.00 | 89 | 1014.8 |
| 20260905133008 | 74 | 19 | 0.9 | 7.8 | 0.00 | 0.00 | 0.00 | 89 | 1015.0 |
| 20260905132505 | 74 | 55 | 0.9 | 2.6 | 0.00 | 0.00 | 0.00 | 90 | 1015.1 |
| 20260905132006 | 74 | 59 | 0.9 | 3.5 | 0.00 | 0.00 | 0.00 | 90 | 1015.0 |
| 20260905131506 | 74 | 26 | 0.9 | 3.5 | 0.00 | 0.00 | 0.00 | 90 | 1015.0 |
| 20260905131006 | 74 | 28 | 0.9 | 3.5 | 0.00 | 0.00 | 0.00 | 90 | 1014.8 |
| 20260905130506 | 74 | 69 | 0.9 | 2.6 | 0.00 | 0.00 | 0.00 | 90 | 1014.6 |
| 20260905130010 | 74 | 45 | 0.9 | 2.6 | 0.00 | 0.00 | 0.00 | 90 | 1014.4 |
| 20260905125505 | 74 | 59 | 0.0 | 3.5 | 0.00 | 0.00 | 0.00 | 90 | 1014.4 |
| 20260905125006 | 74 | 40 | 0.9 | 3.5 | 0.00 | 0.00 | 0.00 | 90 | 1014.1 |
| 20260905124506 | 74 | 15 | 0.9 | 2.6 | 0.00 | 0.00 | 0.00 | 90 | 1014.1 |
| 20260905124007 | 74 | 56 | 0.0 | 1.7 | 0.00 | 0.00 | 0.00 | 90 | 1014.1 |
| 20260905123506 | 74 | 53 | 0.0 | 1.7 | 0.00 | 0.00 | 0.00 | 90 | 1014.0 |
| 20260905123006 | 74 | 54 | 0.0 | 1.7 | 0.00 | 0.00 | 0.00 | 90 | 1013.9 |
| 20260905122505 | 74 | 51 | 0.0 | 1.7 | 0.00 | 0.00 | 0.00 | 90 | 1014.0 |
| 20260905122006 | 74 | 51 | 0.0 | 1.7 | 0.00 | 0.00 | 0.00 | 90 | 1013.8 |